Home   Weather   Northampton   Past weeks

Flag for United Kingdom Past Weather in Northampton, England, United Kingdom — Yesterday and Last 2 Weeks

Now
30 °F

Chilly.


Feels Like: 24 °F
Forecast: 26 / 40 °F
Wind: 6 mph from Northeast

Location: Luton Airport

Current Time: Jan 21, 2017 at 2:41:27 am

Latest Report: Jan 21, 2017 at 1:50 am


Visibility: 6 mi

Pressure: 30.42 "Hg

Humidity: 93%

Dew Point: 28 °F

Location of NorthamptonLocation

Past Weather in Northampton — Graph

°F

Northampton Temperature Yesterday

Maximum temperature yesterday: 41 °F (at 1:50 pm)
Minimum temperature yesterday: 28 °F (at 4:50 am)
Average temperature yesterday: 33 °F

High & Low Weather Summary for the Past Weeks

 TemperatureHumidityPressure
High50 °F (Jan 8, 1:50 pm)100% (Jan 6, 1:20 am)30.66 "Hg (Jan 6, 1:20 am)
Low27 °F (Jan 18, 6:50 am)48% (Jan 18, 3:20 pm)29.33 "Hg (Jan 12, 5:50 pm)
Average38 °F91%30.23 "Hg
* Reported Jan 6 1:20 am — Jan 21 1:20 am, Northampton, Weather by CustomWeather, © 2017

Note: Actual official high and low records may vary slightly from our data, if they occured in-between our weather recording intervals... More about our weather records

Advertising

Northampton Weather History for the Previous 24 Hours

Scroll right to see more
 ConditionsComfort  
Time TempWeatherWind HumidityBarometerVisibility
1:20 am
Sat, Jan 21
30 °FChilly.6 mph93%30.42 "Hg5 mi
12:50 am32 °FChilly.5 mph93%30.42 "HgN/A
11:50 pm
Fri, Jan 20
32 °FChilly.5 mph93%30.42 "HgN/A
11:20 pm32 °FChilly.6 mph93%30.45 "HgN/A
10:50 pm32 °FChilly.6 mph93%30.45 "HgN/A
10:20 pm32 °FChilly.8 mph93%30.45 "HgN/A
9:50 pm32 °FChilly.8 mph93%30.45 "HgN/A
9:20 pm32 °FChilly.9 mph93%30.45 "HgN/A
8:50 pm32 °FChilly.8 mph93%30.45 "HgN/A
8:20 pm34 °FChilly.12 mph87%30.45 "HgN/A
7:50 pm34 °FChilly.12 mph87%30.45 "HgN/A
7:20 pm34 °FChilly.12 mph87%30.45 "HgN/A
6:50 pm34 °FChilly.10 mph81%30.45 "HgN/A
6:20 pm36 °FChilly.9 mph75%30.45 "HgN/A
5:50 pm36 °FChilly.9 mph75%30.45 "HgN/A
5:20 pm34 °FChilly.7 mph75%30.45 "HgN/A
4:50 pm37 °FChilly.8 mph70%30.45 "HgN/A
4:20 pm37 °FChilly.9 mph65%30.45 "HgN/A
3:50 pm37 °FChilly.8 mph70%30.48 "HgN/A
3:20 pm39 °FChilly.7 mph70%30.48 "HgN/A
2:50 pm41 °FQuite cool.9 mph61%30.48 "HgN/A
2:20 pm41 °FQuite cool.8 mph61%30.48 "HgN/A
1:50 pm41 °FQuite cool.8 mph61%30.48 "HgN/A
1:20 pm39 °FChilly.6 mph75%30.48 "HgN/A
12:50 pm37 °FChilly.5 mph81%30.51 "HgN/A
12:20 pm37 °FChilly.3 mph81%30.51 "HgN/A
11:50 am36 °FChilly.5 mph87%30.51 "HgN/A
11:20 am36 °FChilly.5 mph81%30.51 "HgN/A
10:50 am34 °FChilly.6 mph87%30.54 "HgN/A
10:20 am34 °FChilly.6 mph87%30.54 "HgN/A
9:50 am32 °FChilly.7 mph87%30.54 "HgN/A
9:20 am32 °FChilly.8 mph87%30.54 "HgN/A
8:50 am32 °FChilly.7 mph87%30.54 "HgN/A
8:20 am30 °FChilly.7 mph86%30.54 "HgN/A
7:50 am30 °FChilly.6 mph86%30.54 "HgN/A
7:20 am30 °FChilly.7 mph86%30.54 "HgN/A
6:50 am30 °FChilly.5 mph86%30.54 "HgN/A
6:20 am28 °FChilly.3 mph93%30.54 "HgN/A
5:50 am30 °FChilly.5 mph86%30.54 "HgN/A
5:20 am30 °FChilly.3 mph86%30.54 "HgN/A
4:50 am28 °FChilly.5 mph86%30.54 "HgN/A
4:20 am30 °FChilly.6 mph86%30.54 "HgN/A
3:50 am30 °FChilly.7 mph86%30.54 "HgN/A
3:20 am30 °FChilly.6 mph86%30.54 "HgN/A
2:50 am30 °FChilly.7 mph86%30.54 "HgN/A
2:20 am30 °FChilly.6 mph80%30.54 "HgN/A
Weather by CustomWeather, © 2017

See weather overviewHow to use our weather pages